Miscellaneous Local Product
Issued by NWS Hastings, NE

Home | Current Version | Previous Version | Graphics & Text | Print | Product List | Glossary On
Versions: 1 2 3 4 5 6 7 8 9 10 11 12 13 14 15 16 17 18 19 20 21 22 23 24 25 26 27 28 29 30 31 32 33 34 35 36 37 38 39 40 41 42 43 44 45 46 47 48 49 50
000
AXUS43 KGID 191302
MISGRI

GID CWA HOURLY WEATHER ROUNDUP
NATIONAL WEATHER SERVICE HASTINGS NE
800 AM CDT SAT APR 19 2014

NOTE: "FAIR" INDICATES FEW OR NO CLOUDS BELOW 12,000 FEET WITH NO
SIGNIFICANT WEATHER AND/OR OBSTRUCTIONS TO VISIBILITY.

...SOUTH CENTRAL NEBRASKA...

CITY           SKY/WX    TMP DP  RH WIND       PRES   REMARKS
GRAND ISLAND   CLOUDY    56  44  64 S13       29.98R
HASTINGS       PTSUNNY   54  44  69 S14G23    29.95R
KEARNEY        CLOUDY    54  46  76 S13       29.96R
ORD            MOSUNNY   48  42  80 SE5       29.97R
YORK           PTSUNNY   54  43  66 S21G28    29.98R
AURORA         PTSUNNY   53  43  68 S17G24    29.96S
LEXINGTON      CLOUDY    49  46  87 N7        29.97R
HOLDREGE       CLOUDY    53  46  77 S15G23    29.91S
HEBRON         PTSUNNY   54  41  63 S17       30.01S

...NEBRASKA PANHANDLE...

CITY           SKY/WX    TMP DP  RH WIND       PRES   REMARKS
CHADRON        CLOUDY    43  38  82 SW8       30.02R
ALLIANCE       CLOUDY    41  35  79 N6        30.01R
SCOTTSBLUFF    CLOUDY    47  38  71 N3        30.02R
SIDNEY         CLOUDY    48  37  65 N20       29.99R

...WESTERN AND NORTH CENTRAL NEBRASKA...

CITY           SKY/WX    TMP DP  RH WIND       PRES   REMARKS
VALENTINE      CLOUDY    47  36  65 NW3       29.99R
AINSWORTH      CLOUDY    49  39  69 N5        29.98R
ONEILL         MOSUNNY   52  42  69 S5        29.96R
BROKEN BOW     MOSUNNY   49  44  83 S5        29.96R
IMPERIAL       CLOUDY    44  41  89 N7        29.90R
NORTH PLATTE   CLOUDY    52  45  77 E6        29.94R
MCCOOK         CLOUDY    50  46  86 E5        29.90R

...EASTERN NEBRASKA...

CITY           SKY/WX    TMP DP  RH WIND       PRES   REMARKS
NORFOLK        MOSUNNY   55  41  59 S9        29.99R
SO SIOUX CITY  MOSUNNY   55  42  61 SE10      30.03R
TEKAMAH        PTSUNNY   56  41  57 S10       30.05R
COLUMBUS       MOSUNNY   54  39  58 SW8G16    30.03R
ALBION         MOSUNNY   52  42  67 S8        29.99F
OMAHA EPPLEY   PTSUNNY   56  40  55 S17       30.06S
OFFUTT AFB     MOSUNNY   55  42  63 SE8       30.06F
MILLARD        PTSUNNY   54  41  60 SE10      30.04F
LINCOLN        PTSUNNY   57  40  52 S17       30.02F
NEBRASKA CITY  MOSUNNY   53  41  63 S13       30.08S
BEATRICE       PTSUNNY   54  40  60 S14       30.03F
FALLS CITY     MOSUNNY   53  42  66 S8        30.11R

...NORTHERN KANSAS...

CITY           SKY/WX    TMP DP  RH WIND       PRES   REMARKS
GOODLAND       PTCLDY    49  42  77 SW13      29.89R
HILL CITY      CLOUDY    58  46  64 S21G30    29.92R
PHILLIPSBURG   SUNNY     57  46  67 S17G23    29.96R
SMITH CENTER   SUNNY     54  46  76 SE15      29.98S
BELOIT         SUNNY     54  45  71 SE12G17   30.01S
HAYS           CLOUDY    55  46  71 S17       29.99R
RUSSELL        PTSUNNY   58  48  69 S28G33    29.98R
CONCORDIA      CLOUDY    54  43  66 S17       30.03R
SALINA         PTSUNNY   56  43  61 S16       30.06R
TOPEKA         MOSUNNY   55  42  61 S5        30.14R



USA.gov is the U.S. government's official web portal to all federal, state and local government web resources and services.